When you browse on this site, cookies collect data to enhance your experience and personalize the content and advertising you see.
Visit our Privacy Policy to learn more. By continuing to use the site, you agree to this use of cookies and data.
  • Em Portugal
  • Lista de países
  • Para 7 dias
  • Temperatura da água
  • Mapa do tempo
  • Widgets de tempo
  • user-avatar
    Iniciar Sessão

    Previsão horária em Tobruk

    Hoje, 28 Março, Sábado

    Tempo Temperatura Precipitação Vento Pressão Humidade
    00:00 +13°C° 0 mm 3 m/s 761 mmHg 67%
    01:00 +13°C° 0 mm 3 m/s 761 mmHg 66%
    02:00 +13°C° 0 mm 3 m/s 761 mmHg 68%
    03:00 +12°C° 0 mm 3 m/s 760 mmHg 69%
    04:00 +12°C° 0 mm 3 m/s 760 mmHg 70%
    05:00 +12°C° 0 mm 3 m/s 760 mmHg 71%
    06:00 +12°C° 0 mm 4 m/s 760 mmHg 68%
    07:00 +13°C° 0 mm 5 m/s 760 mmHg 64%
    08:00 +13°C° 0 mm 6 m/s 760 mmHg 60%
    09:00 +15°C° 0 mm 6 m/s 760 mmHg 51%
    10:00 +17°C° 0 mm 6 m/s 761 mmHg 41%
    11:00 +21°C° 0 mm 6 m/s 761 mmHg 31%
    12:00 +22°C° 0 mm 5 m/s 760 mmHg 28%
    13:00 +23°C° 0 mm 5 m/s 760 mmHg 25%
    14:00 +25°C° 0 mm 5 m/s 759 mmHg 22%
    15:00 +25°C° 0 mm 5 m/s 759 mmHg 23%
    16:00 +25°C° 0 mm 5 m/s 759 mmHg 23%
    17:00 +25°C° 0 mm 4 m/s 759 mmHg 24%
    18:00 +23°C° 0 mm 4 m/s 759 mmHg 27%
    19:00 +22°C° 0 mm 3 m/s 759 mmHg 31%
    20:00 +20°C° 0 mm 2 m/s 759 mmHg 35%
    21:00 +19°C° 0 mm 2 m/s 759 mmHg 42%
    22:00 +18°C° 0 mm 2 m/s 759 mmHg 48%
    23:00 +17°C° 0 mm 2 m/s 759 mmHg 55%

    Amanhã, 29 Março, Domingo

    Tempo Temperatura Precipitação Vento Pressão Humidade
    00:00 +17°C° 0 mm 2 m/s 759 mmHg 55%
    01:00 +18°C° 0 mm 1 m/s 759 mmHg 55%
    02:00 +16°C° 0 mm 1 m/s 759 mmHg 55%
    03:00 +17°C° 0 mm 2 m/s 759 mmHg 49%
    04:00 +17°C° 0 mm 2 m/s 758 mmHg 43%
    05:00 +17°C° 0 mm 3 m/s 758 mmHg 36%
    06:00 +18°C° 0 mm 4 m/s 758 mmHg 33%
    07:00 +18°C° 0 mm 4 m/s 757 mmHg 30%
    08:00 +19°C° 0 mm 5 m/s 757 mmHg 26%
    09:00 +21°C° 0 mm 5 m/s 757 mmHg 24%
    10:00 +23°C° 0 mm 5 m/s 758 mmHg 22%
    11:00 +26°C° 0 mm 5 m/s 758 mmHg 20%
    12:00 +26°C° 0 mm 4 m/s 757 mmHg 21%
    13:00 +26°C° 0 mm 4 m/s 757 mmHg 23%
    14:00 +26°C° 0 mm 3 m/s 756 mmHg 24%
    15:00 +25°C° 0 mm 4 m/s 756 mmHg 30%
    16:00 +23°C° 0 mm 5 m/s 755 mmHg 36%
    17:00 +22°C° 0 mm 6 m/s 755 mmHg 41%
    18:00 +21°C° 0 mm 7 m/s 755 mmHg 43%
    19:00 +20°C° 0 mm 8 m/s 755 mmHg 45%
    20:00 +18°C° 0 mm 9 m/s 754 mmHg 46%
    21:00 +19°C° 0 mm 9 m/s 755 mmHg 44%
    22:00 +19°C° 0 mm 9 m/s 755 mmHg 41%
    23:00 +20°C° 0 mm 8 m/s 755 mmHg 39%

    Depois de amanhã, 30 Março, Segunda-feira

    Tempo Temperatura Precipitação Vento Pressão Humidade
    00:00 +20°C° 0 mm 7 m/s 754 mmHg 36%
    01:00 +20°C° 0 mm 6 m/s 753 mmHg 34%
    02:00 +21°C° 0 mm 4 m/s 753 mmHg 31%
    03:00 +21°C° 0 mm 4 m/s 753 mmHg 31%
    04:00 +21°C° 0 mm 4 m/s 752 mmHg 31%
    05:00 +21°C° 0 mm 4 m/s 752 mmHg 31%
    06:00 +21°C° 0 mm 4 m/s 752 mmHg 32%
    07:00 +21°C° 0 mm 3 m/s 752 mmHg 33%
    08:00 +22°C° 0 mm 3 m/s 752 mmHg 35%
    09:00 +24°C° 0.1 mm 3 m/s 752 mmHg 33%
    10:00 +25°C° 0.1 mm 3 m/s 752 mmHg 32%
    11:00 +26°C° 0.1 mm 3 m/s 752 mmHg 31%
    12:00 +28°C° 0 mm 3 m/s 751 mmHg 28%
    13:00 +29°C° 0 mm 3 m/s 751 mmHg 26%
    14:00 +30°C° 0 mm 3 m/s 750 mmHg 23%
    15:00 +29°C° 0 mm 3 m/s 750 mmHg 28%
    16:00 +28°C° 0 mm 4 m/s 750 mmHg 32%
    17:00 +27°C° 0 mm 4 m/s 750 mmHg 36%
    18:00 +23°C° 0 mm 5 m/s 751 mmHg 47%
    19:00 +21°C° 0 mm 5 m/s 752 mmHg 58%
    20:00 +19°C° 0 mm 6 m/s 752 mmHg 68%
    21:00 +19°C° 0 mm 6 m/s 753 mmHg 66%
    22:00 +19°C° 0 mm 6 m/s 754 mmHg 64%
    23:00 +19°C° 0 mm 6 m/s 754 mmHg 62%

    31 Março, Terça-feira

    Tempo Temperatura Precipitação Vento Pressão Humidade
    00:00 +17°C° 0 mm 8 m/s 754 mmHg 62%
    01:00 +16°C° 0 mm 9 m/s 754 mmHg 63%
    02:00 +14°C° 0 mm 10 m/s 754 mmHg 63%
    03:00 +14°C° 0 mm 10 m/s 754 mmHg 65%
    04:00 +14°C° 0 mm 10 m/s 754 mmHg 67%
    05:00 +13°C° 0 mm 10 m/s 754 mmHg 69%
    06:00 +14°C° 0 mm 11 m/s 755 mmHg 69%
    07:00 +14°C° 0 mm 12 m/s 755 mmHg 68%
    08:00 +15°C° 0 mm 13 m/s 755 mmHg 68%
    09:00 +15°C° 0 mm 12 m/s 756 mmHg 65%
    10:00 +17°C° 0 mm 11 m/s 756 mmHg 62%
    11:00 +18°C° 0 mm 10 m/s 757 mmHg 59%
    12:00 +18°C° 0 mm 10 m/s 757 mmHg 57%
    13:00 +18°C° 0 mm 10 m/s 757 mmHg 56%
    14:00 +19°C° 0 mm 10 m/s 757 mmHg 54%
    15:00 +18°C° 0 mm 10 m/s 757 mmHg 56%
    16:00 +18°C° 0 mm 10 m/s 757 mmHg 59%
    17:00 +17°C° 0 mm 10 m/s 757 mmHg 61%
    18:00 +16°C° 0 mm 10 m/s 758 mmHg 64%
    19:00 +16°C° 0 mm 9 m/s 758 mmHg 68%
    20:00 +15°C° 0 mm 9 m/s 758 mmHg 71%
    21:00 +15°C° 0 mm 8 m/s 759 mmHg 73%
    22:00 +15°C° 0 mm 8 m/s 759 mmHg 74%
    23:00 +15°C° 0 mm 7 m/s 760 mmHg 75%

    1 Abril, Quarta-feira

    Tempo Temperatura Precipitação Vento Pressão Humidade
    00:00 +15°C° 0 mm 7 m/s 760 mmHg 77%
    01:00 +14°C° 0 mm 6 m/s 760 mmHg 78%
    02:00 +14°C° 0 mm 6 m/s 759 mmHg 80%
    03:00 +14°C° 0 mm 5 m/s 760 mmHg 82%
    04:00 +14°C° 0 mm 5 m/s 760 mmHg 83%
    05:00 +13°C° 0 mm 5 m/s 760 mmHg 84%
    06:00 +14°C° 0 mm 4 m/s 760 mmHg 82%
    07:00 +14°C° 0 mm 4 m/s 760 mmHg 79%
    08:00 +15°C° 0 mm 4 m/s 760 mmHg 76%
    09:00 +16°C° 0 mm 3 m/s 760 mmHg 71%
    10:00 +17°C° 0 mm 3 m/s 760 mmHg 66%
    11:00 +18°C° 0 mm 3 m/s 760 mmHg 61%
    12:00 +19°C° 0 mm 3 m/s 760 mmHg 58%
    13:00 +19°C° 0 mm 3 m/s 759 mmHg 56%
    14:00 +20°C° 0 mm 3 m/s 759 mmHg 53%
    15:00 +20°C° 0 mm 3 m/s 759 mmHg 55%
    16:00 +19°C° 0 mm 4 m/s 758 mmHg 58%
    17:00 +19°C° 0 mm 4 m/s 758 mmHg 61%
    18:00 +18°C° 0 mm 4 m/s 758 mmHg 64%
    19:00 +17°C° 0 mm 3 m/s 758 mmHg 67%
    20:00 +17°C° 0 mm 3 m/s 759 mmHg 71%
    21:00 +17°C° 0 mm 3 m/s 759 mmHg 72%
    22:00 +17°C° 0 mm 2 m/s 759 mmHg 73%
    23:00 +16°C° 0 mm 2 m/s 759 mmHg 74%

    2 Abril, Quinta-feira

    Tempo Temperatura Precipitação Vento Pressão Humidade
    00:00 +16°C° 0 mm 2 m/s 759 mmHg 76%
    01:00 +16°C° 0 mm 1 m/s 759 mmHg 78%
    02:00 +15°C° 0 mm 1 m/s 758 mmHg 80%
    03:00 +15°C° 0 mm 1 m/s 758 mmHg 82%
    04:00 +14°C° 0 mm 1 m/s 758 mmHg 84%
    05:00 +13°C° 0 mm 0 m/s 758 mmHg 85%
    06:00 +15°C° 0 mm 1 m/s 758 mmHg 82%
    07:00 +15°C° 0 mm 1 m/s 758 mmHg 78%
    08:00 +16°C° 0 mm 1 m/s 759 mmHg 74%
    09:00 +18°C° 0 mm 1 m/s 759 mmHg 64%
    10:00 +20°C° 0 mm 1 m/s 759 mmHg 53%
    11:00 +22°C° 0 mm 1 m/s 758 mmHg 43%
    12:00 +23°C° 0 mm 2 m/s 758 mmHg 41%
    13:00 +23°C° 0 mm 2 m/s 758 mmHg 38%
    14:00 +24°C° 0 mm 3 m/s 758 mmHg 36%
    15:00 +23°C° 0 mm 4 m/s 757 mmHg 41%
    16:00 +22°C° 0 mm 4 m/s 757 mmHg 45%
    17:00 +21°C° 0 mm 5 m/s 757 mmHg 50%
    18:00 +20°C° 0 mm 5 m/s 757 mmHg 53%
    19:00 +19°C° 0 mm 5 m/s 757 mmHg 57%
    20:00 +17°C° 0 mm 6 m/s 757 mmHg 60%
    21:00 +17°C° 0 mm 6 m/s 758 mmHg 59%
    22:00 +17°C° 0 mm 6 m/s 758 mmHg 59%
    23:00 +17°C° 0 mm 6 m/s 758 mmHg 58%
    Mostrar mais